Terug naar catalogus

TK-2

ActiefWetenschapSSO
NORAD 52150·PAYLOAD·🇨🇳 China

Gelanceerd Mar 29, 2022 vanaf Taiyuan Satellite Launch Center

Loading…

Volgende Passages (komende 24 uur)

TLE

VersSource: Space-Track

Epoch: Sep 14, 2026, 15:06 UTC

1 52150U 22031A   26257.62938775  .00002683  00000-0  19864-3 0  9990
2 52150  97.8280  94.8323 0015255 179.9180 180.2051 15.03952131243906

Volg TK-2 in realtime met AllMySat

Download on the App Store